Weather History for Torrington, WY

Change the Weather History Date:

Sunday, August 10, 2014

  Actual Average Record
Temperature  
Mean Temperature 70 °F 73 °F  
Max Temperature 85 °F 89 °F 98 °F (2006)
Min Temperature 54 °F 57 °F 47 °F (2002)
Degree Days  
Heating Degree Days 0 0  
Month to date heating degree days 0 0  
Since 1 June heating degree days 85 81  
Since 1 July heating degree days 7 6  
Cooling Degree Days 5 8  
Month to date cooling degree days 74 88  
Year to date cooling degree days 410 504  
Since 1 June cooling degree days 394 486  
Growing Degree Days 20 (Base 50)    
Moisture  
Dew Point 50 °F    
Average Humidity 56    
Maximum Humidity 93    
Minimum Humidity 19    
Precipitation  
Precipitation 0.00 in 0.04 in 0.11 in (2008)
Month to date precipitation 0.57 0.66  
Year to date precipitation 12.03 10.35  
Sea Level Pressure  
Sea Level Pressure 30.14 in    
Wind  
Wind Speed 7 mph (North)    
Max Wind Speed 16 mph    
Max Gust Speed 21 mph    
Visibility 10 miles    
Events      
T = Trace of Precipitation, MM = Missing Value Source: NWS Daily Summary

Daily Weather History Graph

Daily Weather History Graph

Search for Another Location

Airport:

Trip Planner

Search our weather history database for the weather conditions in past years. The results will help you decide how hot, cold, wet, or windy it might be!

Date:

Astronomy

Aug. 10, 2014 Rise Set
Actual Time 5:59 AM MDT 8:03 PM MDT
Civil Twilight 5:28 AM MDT 8:34 PM MDT
Nautical Twilight 4:50 AM MDT 9:11 PM MDT
Astronomical Twilight 4:09 AM MDT 9:52 PM MDT
Moon 7:50 PM MDT (8/10) 5:55 AM MDT (8/10)
Length of Visible Light 15h 05m
Length of Day
14h 04m
Full, 100% of the Moon is Illuminated
Aug 10
Full
Aug 10
Full
Aug 17
Last Quarter
Aug 25
New
Sep 2
First Quarter

Hourly Weather History & Observations

Time (MDT) Temp. Dew Point Humidity Pressure Visibility Wind Dir Wind Speed Gust Speed Precip Events Conditions
12:53 AM 63.0 °F 55.9 °F 78% 30.08 in 10.0 mi ENE 6.9 mph - N/A   Clear
1:53 AM 62.1 °F 54.0 °F 75% 30.09 in 10.0 mi NNW 4.6 mph - N/A   Clear
3:53 AM 57.9 °F 54.0 °F 87% 30.11 in 10.0 mi NW 8.1 mph - N/A   Clear
4:53 AM 55.9 °F 53.1 °F 90% 30.13 in 10.0 mi WNW 5.8 mph - N/A   Clear
6:53 AM 55.9 °F 52.0 °F 87% 30.16 in 10.0 mi WNW 4.6 mph - N/A   Clear
7:53 AM 62.1 °F 53.1 °F 72% 30.18 in 10.0 mi WNW 5.8 mph - N/A   Clear
8:53 AM 66.9 °F 55.0 °F 66% 30.19 in 10.0 mi NNW 3.5 mph - N/A   Clear
9:53 AM 73.0 °F 55.9 °F 55% 30.18 in 10.0 mi Variable 4.6 mph - N/A   Clear
10:53 AM 75.9 °F 55.0 °F 48% 30.17 in 10.0 mi Calm Calm - N/A   Clear
11:53 AM 79.0 °F 48.9 °F 35% 30.16 in 10.0 mi WNW 10.4 mph - N/A   Scattered Clouds
12:53 PM 82.9 °F 44.1 °F 25% 30.15 in 10.0 mi NW 9.2 mph - N/A   Partly Cloudy
1:53 PM 82.9 °F 37.9 °F 20% 30.13 in 10.0 mi Variable 3.5 mph - N/A   Partly Cloudy
2:53 PM 82.9 °F 37.0 °F 19% 30.12 in 10.0 mi NNW 13.8 mph 18.4 mph N/A   Clear
3:53 PM 84.0 °F 37.9 °F 19% 30.10 in 10.0 mi NNE 8.1 mph - N/A   Clear
4:53 PM 84.0 °F 39.9 °F 21% 30.10 in 10.0 mi NNW 9.2 mph - N/A   Clear
5:53 PM 82.9 °F 39.9 °F 22% 30.10 in 10.0 mi NNE 10.4 mph - N/A   Clear
6:53 PM 80.1 °F 50.0 °F 35% 30.11 in 10.0 mi SE 9.2 mph - N/A   Clear
7:53 PM 73.9 °F 52.0 °F 46% 30.12 in 10.0 mi East 15.0 mph - N/A   Partly Cloudy
8:53 PM 69.1 °F 53.1 °F 57% 30.15 in 10.0 mi East 11.5 mph - N/A   Clear
9:53 PM 64.9 °F 54.0 °F 68% 30.16 in 10.0 mi East 9.2 mph - N/A   Clear
10:53 PM 63.0 °F 55.0 °F 75% 30.17 in 10.0 mi ESE 5.8 mph - N/A   Clear
11:53 PM 60.1 °F 54.0 °F 80% 30.19 in 10.0 mi East 8.1 mph - N/A   Clear